Content
SEND FEEDBACK

Daily
Averages
Monthly
Summary
United States of America

CHICAGO, ILLINOIS


Home > North America > United States > Illinois
Elevation: 674 feet     Latitude: 41 59N     Longitude: 087 54W

WEATHER
 
SELECT A DAY
Number of Records: 194,984;   Date Range: 7/8/95 - 8/28/14
 
SHARE

PRINT THIS DATA

[ ← Previous Day ]
WEATHER ALMANAC - JUNE 18, 2014
[ Next Day → ]
[ °C ]   °F
Weather ElementAverageHighLow
Temperature68.4 °F81 °F (2:52 am)60.1 °F (7:31 pm)
Dewpoint62.4 °F70 °F (1:52 am)57 °F (7:31 pm)
Humidity81.8 %90 % (10:59 am)58 % (3:52 pm)
Barometer29.97 in30.05 in (10:31 pm)29.87 in (1:52 am)
Wind Speed8.5 mph20.7 mph (10:40 am)
Wind Gust29.9 mph (12:17 pm)
Weather ElementAverage
Visibility9.4 mi
Wind DirectionSE (137 °)

Weather ElementTotal
Precipitation0.65 in
Cooling Degree Days5.6 (Base 65)
Growing Degree Days20.6 (Base 50)
Averaged from 40 records on June 18, 2014
WEATHER CONDITIONS BREAKOUT
WIND DIRECTION BREAKOUT
WEATHER BY HOUR - JUNE 18, 2014
[ °C ]   °F
Local TimeTemperatureDewpointHumidityBarometerVisibilityWind DirectionWind SpeedGust SpeedPrecipitationEventsConditions
1:52 AM80.1 °F70.0 °F71 %29.87 in10.0 miSSW (200°)9.2 mphClear
2:52 AM81.0 °F70.0 °F69 %29.87 in10.0 miSSW (210°)9.2 mphClear
3:52 AM80.1 °F70.0 °F71 %29.87 in10.0 miSW (220°)10.4 mphClear
5:52 AM78.1 °F70.0 °F76 %29.90 in10.0 miSW (220°)6.9 mphClear
6:52 AM78.1 °F70.0 °F76 %29.92 in10.0 miSSW (210°)6.9 mphClear
7:52 AM71.1 °F63.0 °F75 %29.94 in10.0 miNE (50°)9.2 mphMostly Cloudy
8:52 AM66.9 °F60.1 °F79 %29.94 in10.0 miNorth (350°)3.5 mphOvercast
9:52 AM72.0 °F62.1 °F71 %29.95 in10.0 miNNE (30°)3.5 mphMostly Cloudy
10:40 AM70.0 °F62.1 °F76 %29.99 in10.0 miNorth (360°)20.7 mph28.8 mphThunderstormOvercast
10:52 AM68.0 °F63.0 °F84 %29.99 in2.0 miNorth (360°)15.0 mph0.09 inRain-ThunderstormHeavy Thunderstorms and Rain
10:59 AM66.9 °F64.0 °F90 %30.00 in1.5 miNorth (10°)15.0 mph23.0 mph0.09 inRain-ThunderstormHeavy Thunderstorms and Rain
11:05 AM66.9 °F64.0 °F90 %30.01 in3.0 miNorth (350°)9.2 mph23.0 mph0.10 inRain-ThunderstormLight Thunderstorms and Rain
11:32 AM68.0 °F64.0 °F87 %30.01 in10.0 miEast (80°)4.6 mph0.11 inRain-ThunderstormLight Rain
11:44 AM68.0 °F64.0 °F87 %29.99 in10.0 miNorth (10°)5.8 mph0.11 inRain-ThunderstormLight Thunderstorms and Rain
11:52 AM68.0 °F63.0 °F84 %29.96 in10.0 miNNE (30°)5.8 mph0.11 inRain-ThunderstormLight Thunderstorms and Rain
12:17 PM66.0 °F62.1 °F87 %29.91 in10.0 miVariable5.8 mph29.9 mph0.01 inRain-ThunderstormLight Rain
12:40 PM68.0 °F63.0 °F84 %29.95 in10.0 miWNW (290°)6.9 mph0.01 inClear
12:52 PM69.1 °F64.0 °F84 %29.95 in10.0 miNW (320°)8.1 mph0.01 inClear
1:52 PM73.0 °F66.0 °F79 %29.87 in10.0 miSouth (190°)13.8 mphClear
2:52 PM77.0 °F64.9 °F66 %29.90 in10.0 miSouth (190°)6.9 mphScattered Clouds
3:52 PM81.0 °F64.9 °F58 %29.91 in10.0 miNorthClear
4:52 PM78.1 °F66.9 °F68 %29.95 in10.0 miNorth (350°)12.7 mphThunderstormScattered Clouds
5:07 PM77.0 °F66.9 °F71 %29.96 in10.0 miNNW (340°)8.1 mphScattered Clouds
5:52 PM73.9 °F68.0 °F82 %29.95 in9.0 miNNE (30°)8.1 mph0.01 inRain-ThunderstormLight Rain
6:04 PM66.0 °F62.1 °F87 %29.98 in10.0 miNE (40°)13.8 mph27.6 mph0.00 inThunderstormMostly Cloudy
6:12 PM64.0 °F60.1 °F87 %29.98 in10.0 miNE (40°)19.6 mph25.3 mph0.00 inScattered Clouds
6:42 PM62.1 °F57.9 °F86 %30.00 in10.0 miNNE (30°)9.2 mph0.00 inMostly Cloudy
6:49 PM62.6 °F57.2 °F82 %30.01 in10.0 miNE (40°)10.4 mph0.00 inMostly Cloudy
6:52 PM62.1 °F57.9 °F86 %30.00 in10.0 miNNE (30°)8.1 mph0.00 inMostly Cloudy
7:31 PM60.1 °F57.0 °F90 %30.01 in10.0 miNNE (30°)8.1 mphThunderstormOvercast
7:52 PM61.0 °F57.9 °F90 %30.00 in10.0 miNNE (20°)9.2 mphOvercast
8:05 PM61.0 °F57.9 °F90 %30.03 in10.0 miNorth (350°)6.9 mphOvercast
8:52 PM61.0 °F57.9 °F90 %30.02 in10.0 miNE (40°)4.6 mphOvercast
9:07 PM62.1 °F57.9 °F86 %30.03 in10.0 miCalmOvercast
9:52 PM62.1 °F57.9 °F86 %30.02 in10.0 miNNE (20°)8.1 mphOvercast
10:12 PM61.0 °F57.0 °F87 %30.03 in10.0 miNorth (10°)6.9 mphThunderstormOvercast
10:31 PM61.0 °F57.9 °F90 %30.05 in10.0 miNorth (350°)3.5 mphOvercast
10:52 PM61.0 °F57.9 °F90 %30.03 in10.0 miNNE (20°)9.2 mphOvercast
11:36 PM61.0 °F57.9 °F90 %30.03 in10.0 miNE (50°)5.8 mphOvercast
11:52 PM61.0 °F57.9 °F90 %30.03 in10.0 miNorth (10°)4.6 mph0.00 inOvercast
Hourly data recorded from KPWK, located miles away from Chicago, Illinois







STORIES FROM OUR PARTNERS